Flag for Germany Weather past 2 weeks in Mülheim, North Rhine-Westphalia, Germany

Now
50 °F

Clear.


Feels Like: 47 °F
Forecast: 45 / 57 °F
Wind: 7 mph from South

Location: Koeln / Bonn

Current Time: Oct 21, 2014 at 1:58:09 AM

Latest Report: Oct 21, 2014 at 1:20 AM


Visibility: 10 mi

Pressure: 29.95 "Hg

Humidity: 88%

Dew point: 46 °F

Location of MülheimLocation

Historic Weather in Mülheim — Graph

°F

Mülheim temperature yesterday

Maximum temperature yesterday: 63 °F (at 3:50 PM)
Minimum temperature yesterday: 52 °F (at 11:50 PM)
Average temperature yesterday: 58 °F

Past Weeks' High & Low Weather Summary

 TemperatureHumidityPressure
High75 °F (Oct 19, 1:50 PM)100% (Oct 6, 1:20 AM)30.12 "Hg (Oct 6, 1:20 AM)
Low45 °F (Oct 12, 7:50 AM)46% (Oct 14, 2:50 PM)29.53 "Hg (Oct 7, 8:50 AM)
Average58 °F82%29.85 "Hg
* Reported Oct 6 12:20 AM — Oct 21 12:50 AM, Mülheim, Weather by CustomWeather, © 2014

Note: Actual official high and low records may vary slightly from our data, if they occured in-between our weather recording intervals... More about our weather records

Advertising

Mülheim weather history for previous 24 hours

 ConditionsComfort  
Time TempWeatherWind HumidityBarometerVisibility
12:50 AM
Oct 21
50 °FClear.6 mph88%29.95 "Hg10 mi
12:20 AM52 °FClear.6 mph82%29.95 "Hg10 mi
11:50 PM
Oct 20
52 °FPassing clouds.7 mph88%29.98 "HgN/A
11:20 PM54 °FPartly cloudy.6 mph82%29.98 "HgN/A
10:50 PM54 °FPassing clouds.7 mph82%29.98 "HgN/A
10:20 PM55 °FPartly cloudy.7 mph77%29.98 "HgN/A
9:50 PM55 °FPassing clouds.7 mph77%29.98 "HgN/A
9:20 PM54 °FPassing clouds.5 mph82%29.98 "HgN/A
8:50 PM54 °FPassing clouds.6 mph88%29.98 "HgN/A
8:20 PM54 °FPassing clouds.5 mph88%30.01 "HgN/A
7:50 PM55 °FClear.1 mph82%30.01 "Hg10 mi
7:20 PM55 °FScattered clouds.2 mph82%30.01 "HgN/A
6:50 PM55 °FScattered clouds.6 mph82%30.01 "HgN/A
6:20 PM57 °FScattered clouds.6 mph72%29.98 "HgN/A
5:50 PM59 °FScattered clouds.5 mph72%30.01 "HgN/A
5:20 PM61 °FScattered clouds.8 mph68%30.01 "HgN/A
4:50 PM61 °FBroken clouds.9 mph68%30.01 "HgN/A
4:20 PM61 °FBroken clouds.10 mph68%30.04 "HgN/A
3:50 PM63 °FBroken clouds.12 mph64%30.04 "HgN/A
3:20 PM61 °FPartly sunny.12 mph72%30.04 "HgN/A
2:50 PM61 °FBroken clouds.10 mph72%30.04 "HgN/A
2:20 PM59 °FPartly sunny.10 mph72%30.07 "HgN/A
1:50 PM59 °FPartly sunny.13 mph72%30.07 "HgN/A
1:20 PM61 °FBroken clouds.14 mph68%30.07 "HgN/A
12:50 PM59 °FBroken clouds.12 mph72%30.07 "HgN/A
12:20 PM59 °FLight rain. Broken clouds.10 mph72%30.07 "HgN/A
11:50 AM59 °FLight rain. Partly sunny.10 mph77%30.07 "HgN/A
11:20 AM59 °FBroken clouds.12 mph77%30.07 "HgN/A
10:50 AM59 °FPartly sunny.12 mph77%30.07 "HgN/A
10:20 AM59 °FBroken clouds.12 mph77%30.07 "HgN/A
9:50 AM59 °FPartly sunny.9 mph77%30.07 "HgN/A
9:20 AM57 °FPartly sunny.9 mph82%30.07 "HgN/A
8:50 AM57 °FPassing clouds.8 mph82%30.07 "HgN/A
8:20 AM57 °FPartly cloudy.8 mph82%30.07 "HgN/A
7:50 AM57 °FPassing clouds.10 mph82%30.07 "HgN/A
7:20 AM57 °FPassing clouds.9 mph82%30.07 "HgN/A
6:50 AM55 °FPassing clouds.9 mph82%30.04 "HgN/A
5:20 AM57 °FClear.8 mph77%30.04 "Hg10 mi
4:50 AM57 °FClear.10 mph77%30.04 "Hg10 mi
4:20 AM59 °FClear.12 mph77%30.04 "Hg10 mi
3:50 AM59 °FClear.13 mph77%30.07 "Hg10 mi
3:20 AM59 °FClear.13 mph77%30.07 "Hg10 mi
2:50 AM59 °FClear.13 mph82%30.07 "Hg10 mi
2:20 AM59 °FClear.12 mph82%30.07 "Hg10 mi
1:50 AM59 °FClear.14 mph77%30.07 "Hg10 mi
1:20 AM59 °FClear.14 mph82%30.07 "Hg10 mi
Weather by CustomWeather, © 2014

See weather overviewHow to use our weather pages